Theta_e
313 314 313 311 311 311 311 311 312 313 312 313 313 313 313 311 311 313 314 315 316 315 314 316 317 317 318 317 320 325 324 331 336 338 339 338 340 344 346 347 348 348 347 345 344 344 343 342 342 342 341 340 341 343 342 341 339 339 338 339 338 338 338 339 340 342 342 341 340 341 343 343 342 341 340 340 340 340 340 340 340 340 340 339 338 337
313 314 313 311 311 311 311 313 314 314 313 313 312 311 311 310 312 313 315 315 316 316 314 316 317 317 318 318 322 325 327 334 337 340 342 343 344 345 347 347 347 347 346 346 345 344 343 343 343 342 341 341 342 343 342 341 340 339 338 338 339 339 340 340 341 342 343 342 342 342 343 342 341 341 340 340 341 341 340 340 340 340 340 339 338 337
313 313 313 312 312 313 313 314 315 314 314 313 311 310 310 311 313 313 315 315 315 317 316 316 316 318 320 320 322 324 328 334 337 340 344 346 347 346 345 345 345 346 347 347 346 344 342 343 343 342 342 343 343 342 341 341 341 339 337 337 339 340 341 342 342 342 342 341 341 342 342 341 341 341 340 341 341 340 340 340 340 339 339 339 338 337
313 313 313 314 313 314 315 314 313 313 314 313 312 311 310 312 312 311 314 315 316 318 318 317 316 318 321 321 323 323 326 334 337 339 343 345 346 345 345 344 345 346 347 348 347 345 343 342 343 342 342 342 342 341 340 340 339 338 338 338 339 341 341 341 341 342 341 340 339 339 339 339 340 340 340 340 340 340 340 340 339 338 338 338 338 337
314 313 313 314 314 314 314 313 314 313 312 312 313 312 311 312 312 312 315 315 315 318 320 318 312 317 324 323 324 324 328 337 341 342 345 345 345 345 345 345 345 346 347 347 347 346 343 341 342 341 341 341 340 340 339 339 338 339 340 340 340 340 340 340 340 340 339 339 339 338 338 338 338 338 339 339 339 339 339 339 339 339 338 338 337 337
313 314 314 314 313 313 313 312 312 312 311 312 313 313 313 313 313 314 315 316 314 314 319 316 310 318 329 326 325 324 330 340 343 343 345 345 345 344 345 346 346 346 345 345 345 345 342 340 339 339 339 339 339 339 339 339 338 338 339 340 339 340 339 339 339 338 338 338 338 338 338 338 338 338 339 339 339 339 339 339 339 339 339 338 338 337
313 314 313 313 313 312 311 311 311 312 311 311 313 314 314 314 314 314 314 314 313 314 319 318 318 324 326 323 327 327 333 342 342 342 344 343 344 344 345 346 345 344 344 343 343 343 340 339 338 338 338 338 338 338 338 338 338 338 338 338 338 338 338 338 337 337 337 338 338 337 337 338 338 338 338 338 338 338 338 339 339 339 339 338 338 337
313 313 313 313 313 312 311 310 310 312 312 311 314 315 315 315 314 314 314 313 315 318 317 316 324 328 323 323 330 329 332 342 343 342 343 342 343 345 345 345 344 343 342 342 342 341 339 338 337 337 337 338 338 338 338 338 337 337 337 336 337 337 337 336 336 336 336 337 337 337 337 337 338 337 338 338 337 337 338 338 338 338 337 337 337 337
313 313 313 312 312 311 311 311 312 312 312 313 315 316 315 315 315 315 315 314 317 317 313 313 317 320 321 325 330 328 329 339 346 344 343 343 342 344 344 343 342 341 340 339 338 338 337 337 336 335 336 337 337 337 336 337 337 337 337 336 337 337 336 336 337 337 337 337 337 337 338 338 338 338 338 338 337 338 339 339 338 338 337 337 337 337
313 313 313 312 311 311 311 312 312 312 313 315 315 316 316 316 318 317 315 314 316 316 313 314 312 312 319 324 326 327 325 337 346 345 342 342 341 341 341 340 339 337 337 336 335 335 334 334 334 333 333 334 334 334 334 334 335 335 335 335 335 334 334 335 335 335 335 336 337 337 337 338 338 338 337 337 337 337 338 338 338 337 337 337 336 337
313 313 313 313 312 312 313 312 312 313 314 315 314 314 314 317 317 316 318 314 312 318 318 313 312 312 314 319 323 324 326 338 346 345 343 343 340 339 337 336 336 335 335 334 333 333 333 332 332 332 331 331 331 331 331 331 331 331 332 332 332 331 331 332 332 333 333 333 333 334 334 335 336 336 336 336 337 337 337 337 337 337 337 336 336 336
313 313 313 314 313 313 312 312 313 313 313 315 315 313 313 316 315 312 315 315 315 324 321 312 314 311 311 324 335 334 334 341 344 344 344 342 339 337 335 334 334 333 333 333 332 331 331 331 331 330 331 330 329 329 329 329 329 329 329 330 330 330 329 330 330 330 331 331 331 332 333 333 333 333 334 334 335 336 336 337 336 336 336 336 336 335
313 312 312 314 315 314 312 311 312 312 313 314 314 314 313 315 313 311 314 317 319 323 319 314 313 311 320 337 343 341 340 341 342 341 341 339 337 335 334 333 332 332 332 331 331 330 330 330 329 329 329 328 328 328 328 328 328 328 328 328 329 328 328 329 328 329 330 330 330 330 331 331 332 332 332 333 333 333 334 334 335 335 335 335 336 336
315 314 312 314 315 314 313 310 310 310 311 312 312 314 316 315 313 314 317 317 319 318 315 315 311 316 335 344 340 341 341 339 339 337 336 335 334 333 332 331 331 330 330 330 330 329 329 328 328 328 328 327 327 327 326 326 327 327 327 327 327 327 327 327 328 328 328 328 328 329 330 330 330 330 330 330 331 331 331 332 333 333 334 334 335 335
316 316 314 313 314 315 314 311 311 311 311 312 313 315 316 316 315 318 318 317 320 318 312 312 316 327 343 343 337 338 336 334 334 332 332 331 330 330 329 329 329 329 329 329 329 328 328 327 327 327 326 326 326 325 325 325 325 326 326 325 325 326 326 326 326 327 327 327 328 328 328 328 328 328 328 328 329 329 330 330 331 331 333 333 334 334
314 314 314 314 314 314 314 313 313 313 312 314 314 313 314 315 317 320 318 317 322 320 316 324 333 337 341 338 334 334 332 331 331 330 330 329 328 328 328 328 328 328 328 328 327 327 326 326 326 325 325 325 324 324 324 324 324 324 324 324 325 325 325 325 325 326 326 326 327 326 326 326 326 326 326 327 328 328 329 329 330 331 332 332 332 333
315 315 314 314 315 314 313 315 314 314 315 316 313 312 314 315 316 319 317 318 323 322 324 336 342 340 340 338 334 332 332 331 330 329 329 329 328 328 328 329 328 327 328 326 326 326 325 325 324 324 324 324 324 324 324 324 323 323 323 324 324 323 324 324 324 324 324 325 325 324 324 324 325 326 326 327 327 327 327 328 329 330 330 331 331 332
318 317 315 313 313 313 313 315 315 315 316 314 312 312 315 314 316 321 319 318 320 320 327 340 343 341 343 342 336 333 333 333 330 330 329 328 328 328 328 328 327 327 327 325 325 324 323 324 323 323 323 323 323 323 323 323 323 323 323 323 323 323 323 323 323 323 323 323 323 323 323 323 324 325 325 325 325 325 325 326 327 327 327 329 330 332
318 316 315 313 313 313 314 315 316 316 314 313 313 313 316 316 315 319 319 317 319 319 327 341 343 340 342 340 338 336 334 333 331 329 329 328 328 328 327 327 326 326 325 324 323 323 322 323 322 322 322 322 323 323 322 322 322 322 322 322 322 322 321 321 322 322 322 322 322 322 323 323 323 323 323 324 324 323 324 324 324 325 325 326 327 329
319 317 317 313 312 315 314 315 315 315 314 314 314 312 316 319 317 317 315 317 321 319 327 340 341 340 342 337 336 336 333 332 331 329 329 327 327 327 326 326 326 324 323 322 322 322 322 321 321 322 322 321 322 322 322 321 321 321 321 321 321 321 320 321 321 321 322 322 321 322 322 322 322 322 322 322 322 322 323 323 323 324 325 326 326 327
317 318 321 317 312 314 314 314 314 314 314 313 312 312 312 313 316 318 315 315 319 320 328 341 342 341 340 335 334 335 332 331 330 328 327 326 326 326 326 325 324 322 321 321 321 323 322 321 321 321 321 321 321 321 321 321 321 321 321 321 320 320 320 320 320 320 321 321 321 321 321 320 320 321 321 321 322 322 323 323 323 323 323 325 326 326
319 320 325 321 313 312 313 314 313 313 313 312 313 313 314 314 314 316 316 313 313 317 327 340 344 340 336 334 333 334 331 329 328 326 326 326 326 325 324 322 321 321 321 322 322 323 321 321 321 320 320 320 320 321 321 320 320 320 320 320 319 319 319 319 319 320 320 320 321 320 320 320 319 320 320 321 322 323 323 323 321 320 321 321 322 324
327 323 322 318 314 313 315 314 313 314 313 312 314 314 316 319 315 315 323 321 313 314 321 335 345 341 333 333 334 331 329 327 326 325 326 326 325 323 321 320 320 321 322 322 323 322 321 321 320 320 320 320 320 320 320 320 320 319 319 319 319 319 319 319 319 320 319 319 319 319 319 319 319 320 320 321 322 321 321 320 318 318 317 318 318 320
326 321 318 317 315 314 315 314 312 314 313 312 314 314 315 317 314 319 330 327 318 317 320 333 344 340 332 333 333 329 327 326 325 325 325 325 323 321 320 320 321 321 322 323 323 321 320 320 319 319 319 319 319 319 319 319 319 319 319 319 319 319 319 318 319 319 318 318 318 318 318 318 319 319 319 320 320 319 317 317 316 316 315 315 316 317
320 320 320 320 317 315 316 315 313 313 313 314 316 314 313 315 314 317 322 320 320 319 320 334 344 338 332 333 332 328 327 326 325 325 323 323 322 321 320 320 320 321 322 322 321 320 319 319 318 318 318 318 318 318 318 317 318 318 318 318 318 318 318 318 318 318 317 316 317 317 317 317 318 318 319 319 318 317 316 315 314 314 314 314 314 315
323 325 322 323 324 322 318 316 314 313 313 315 316 314 313 314 313 314 315 317 320 319 322 336 342 336 332 332 331 328 327 326 326 324 322 321 320 320 320 320 321 321 321 320 320 320 320 318 318 317 317 317 317 317 316 316 317 317 317 317 317 317 317 317 317 317 317 316 316 316 316 317 317 318 318 318 316 315 314 314 313 313 313 313 313 314
324 325 321 323 327 325 319 316 315 314 314 314 314 313 314 313 314 316 316 319 323 327 334 338 337 336 334 331 330 328 326 326 326 323 321 320 319 319 320 320 321 321 320 320 320 319 320 319 317 316 316 316 316 316 315 315 315 315 316 316 316 317 317 317 316 316 316 316 315 315 315 315 316 317 317 316 314 314 313 313 312 312 312 312 311 312
323 322 320 321 323 322 317 315 316 315 313 313 314 314 314 313 316 319 317 320 324 329 337 337 334 335 334 330 329 328 326 325 324 322 321 319 319 319 319 320 320 319 319 319 319 319 319 319 317 315 315 315 315 315 315 315 315 314 315 315 316 317 317 316 316 315 315 315 315 314 314 314 315 315 315 314 313 313 312 312 312 311 310 310 310 310
323 321 322 321 320 321 318 315 319 319 315 314 314 316 318 316 316 321 324 326 325 325 333 336 334 334 333 330 328 327 325 324 322 321 320 319 319 319 319 319 319 318 318 318 318 318 318 317 315 314 314 314 314 314 314 314 314 314 314 314 315 316 316 315 315 314 314 314 314 314 314 314 314 314 314 314 313 312 311 311 311 310 309 309 309 308
323 324 325 323 324 327 324 320 323 326 324 319 315 317 323 324 324 332 339 337 332 331 334 335 334 334 332 329 327 325 323 322 321 319 319 319 319 319 319 319 318 317 317 317 317 317 315 314 313 312 312 313 313 313 313 313 313 314 314 314 314 315 314 314 314 314 314 313 313 313 313 313 313 313 313 313 312 311 310 310 309 308 308 308 307 307
327 330 328 324 326 327 327 327 329 333 332 327 325 328 333 335 335 339 341 337 336 336 333 333 333 331 329 326 325 323 321 321 320 319 319 318 318 319 318 318 317 317 317 316 315 314 314 312 311 311 311 311 312 312 312 311 312 313 313 313 314 314 313 313 313 313 313 313 312 312 313 313 313 313 313 312 311 310 309 309 308 308 307 307 306 306
329 332 327 326 328 327 329 331 330 333 333 331 330 331 334 338 337 336 336 335 335 334 331 331 332 328 325 324 323 322 321 320 320 319 318 318 318 318 318 317 317 317 316 315 314 313 314 312 310 310 311 310 311 311 311 310 311 312 312 312 313 313 312 312 312 312 312 312 312 311 312 312 313 312 312 311 310 309 309 308 308 307 307 306 305 305
326 330 328 328 331 330 329 332 335 334 334 335 332 327 329 336 337 334 334 333 332 331 331 332 329 324 323 322 322 322 322 321 320 319 318 318 318 318 317 317 316 315 314 313 312 313 313 311 310 310 310 310 310 310 310 310 309 310 311 311 312 312 311 311 311 311 312 311 311 311 311 311 312 311 310 309 309 309 308 308 307 307 306 306 305 305
324 330 330 329 332 331 329 334 339 336 332 331 328 324 325 331 332 330 328 327 327 327 327 327 324 321 321 322 321 321 320 319 319 319 319 318 317 317 316 315 314 313 311 311 312 311 310 310 310 310 310 310 310 310 310 309 309 309 310 311 311 311 310 310 310 310 310 310 309 310 310 311 311 310 308 308 308 308 307 307 307 307 306 305 305 304
327 330 329 328 332 331 329 333 336 332 329 328 325 324 325 324 323 323 322 321 322 322 322 322 321 320 319 318 317 315 314 313 313 315 317 317 316 316 315 313 311 311 311 312 312 310 309 309 310 310 310 310 310 310 310 309 308 309 309 310 310 310 309 309 309 309 309 307 308 309 309 310 310 309 308 307 307 308 307 306 305 306 306 305 305 304
329 329 328 327 330 331 330 332 332 328 325 324 323 324 326 324 324 326 324 321 320 320 320 320 318 317 315 313 312 311 311 311 311 311 312 313 313 312 311 311 310 310 310 310 310 309 309 309 310 309 310 310 309 309 309 309 308 308 308 309 309 309 309 309 308 308 307 306 306 308 308 308 308 308 308 306 306 306 306 304 304 305 305 305 304 304
325 328 328 326 326 328 329 327 327 326 325 325 324 326 328 326 326 326 324 321 319 319 319 317 315 314 312 311 311 311 311 312 312 311 310 310 309 309 308 308 308 308 308 308 308 308 308 309 309 309 309 309 309 309 309 309 308 307 308 309 309 308 308 308 308 307 305 305 305 306 307 307 307 307 307 306 305 304 304 303 303 303 304 304 303 303
325 327 329 327 324 325 328 327 325 326 327 326 326 327 328 326 322 321 322 321 319 317 315 314 313 312 311 311 311 311 313 314 314 312 310 309 308 308 308 307 306 307 307 307 307 307 307 308 309 308 308 308 308 308 308 308 308 307 307 308 308 308 307 307 307 306 306 305 305 305 305 305 305 305 306 306 305 304 303 302 302 302 302 303 303 302
328 330 332 330 325 325 328 329 327 326 326 326 326 328 329 326 322 324 327 323 317 314 312 311 311 311 310 310 311 313 315 316 313 310 309 308 307 307 307 307 306 307 307 307 307 307 307 307 308 307 308 308 307 307 307 307 307 307 307 307 307 307 307 307 306 306 305 305 304 304 304 304 304 303 303 304 305 304 303 301 301 301 301 301 302 302
328 331 331 329 326 326 328 328 326 325 326 326 325 327 328 326 323 327 332 327 316 311 310 309 310 310 309 310 312 314 316 314 311 308 308 308 307 306 307 307 306 307 307 307 307 307 306 306 306 306 307 307 307 306 306 306 306 306 306 307 307 306 306 306 305 305 304 304 303 304 303 303 302 302 301 302 303 304 303 301 300 300 300 300 301 301
325 327 327 327 327 326 327 326 324 324 325 324 324 324 324 326 327 329 330 323 314 311 310 309 308 309 309 310 312 312 311 309 307 307 307 307 306 306 306 306 306 306 307 307 307 306 305 305 305 306 306 306 306 306 305 305 305 306 306 306 306 305 305 305 304 303 302 302 302 302 302 302 301 300 300 301 302 303 302 301 300 299 299 299 300 300
323 324 324 327 327 325 325 326 325 324 323 322 323 322 321 326 330 326 321 316 312 311 310 308 308 309 309 309 308 307 307 306 306 306 306 306 306 306 305 305 306 306 306 306 306 305 304 305 305 305 306 306 305 305 304 304 305 305 306 306 305 304 303 303 302 301 300 299 299 300 300 300 299 299 299 300 301 302 301 300 300 299 298 298 299 299
323 324 324 324 325 326 325 325 325 325 322 320 323 324 322 325 324 318 314 313 312 311 310 309 309 308 308 307 306 305 306 306 305 306 306 306 305 305 305 305 305 306 306 306 305 304 304 304 304 305 305 305 305 304 304 304 304 304 305 305 305 303 302 302 301 299 299 298 298 298 299 299 299 299 298 298 300 300 300 299 299 298 298 298 298 298
323 326 324 321 322 326 326 323 323 323 320 319 322 321 320 320 317 313 313 313 312 311 310 309 308 307 306 306 305 305 305 305 306 306 306 305 305 304 304 305 306 306 306 305 304 304 304 304 304 304 304 304 304 304 304 303 303 304 304 304 304 304 302 301 301 300 299 299 298 298 298 299 299 298 298 298 298 298 299 298 298 298 298 297 297 297
322 322 321 319 319 322 323 322 320 319 318 318 318 317 316 316 314 313 313 312 311 310 309 308 307 306 305 305 305 305 305 305 306 306 305 305 305 305 305 305 305 304 304 303 303 303 303 303 303 303 303 304 304 303 303 303 303 303 303 303 304 304 303 302 301 300 300 299 299 299 299 299 299 298 298 298 297 297 297 297 297 298 298 297 297 297
319 318 318 319 319 319 320 319 317 317 316 316 315 315 315 314 314 313 312 310 309 308 307 306 306 306 305 305 305 305 305 305 305 305 305 306 305 304 303 303 302 302 302 302 303 303 303 303 303 302 302 303 303 303 303 303 303 303 303 303 303 303 303 303 302 301 300 299 299 299 299 299 299 298 298 297 297 297 296 296 296 297 297 297 297 297
318 317 317 319 319 319 319 318 317 316 315 314 314 314 313 313 313 312 311 309 308 307 306 306 306 305 305 304 304 304 304 304 305 305 305 305 303 302 301 301 301 302 302 302 302 303 303 302 302 302 302 301 302 302 302 302 302 302 302 302 302 302 302 303 302 301 300 300 300 299 299 299 298 298 298 297 297 296 296 296 296 296 296 296 297 297
318 317 317 317 317 318 318 317 315 315 314 313 313 313 313 312 312 311 309 308 307 307 306 306 305 305 305 304 304 304 304 304 304 304 304 303 301 301 301 301 301 302 302 302 302 302 302 302 301 301 301 301 301 301 301 301 301 302 302 302 301 301 301 302 302 302 301 300 300 299 299 299 298 298 298 297 297 296 296 296 296 295 295 295 295 296
317 317 316 316 316 316 317 316 315 315 315 314 313 312 312 311 310 309 308 307 307 307 306 306 305 305 304 304 304 304 304 304 304 303 303 302 301 301 301 301 301 301 302 302 302 302 302 302 301 301 301 301 301 301 301 301 301 301 302 302 302 301 301 301 302 302 301 301 300 299 299 298 298 298 298 297 297 296 296 296 296 295 295 294 294 294
316 315 314 315 316 316 316 316 315 315 315 314 312 311 311 310 309 309 308 307 307 306 306 305 305 304 304 304 303 303 303 303 303 302 302 301 301 301 301 301 301 301 302 302 302 301 301 301 301 301 301 301 301 300 300 300 300 301 301 301 302 301 301 301 301 301 301 301 300 300 300 299 299 299 299 298 298 297 296 296 296 296 296 295 295 295
316 315 314 315 316 315 315 315 314 313 313 312 310 310 309 309 308 308 307 307 306 305 305 305 304 304 304 303 303 303 303 303 302 302 301 301 301 301 301 301 301 301 301 301 301 301 301 301 301 301 300 300 300 300 300 300 300 300 300 300 301 301 301 301 301 301 301 301 301 301 300 300 299 300 299 299 299 299 298 298 297 297 297 296 296 296
Wind_Speed
6 5 8 7 7 8 10 10 7 8 11 12 8 6 8 8 8 11 11 11 16 11 10 12 11 12 14 11 5 5 9 14 17 14 10 10 10 11 12 11 10 9 8 11 16 18 18 18 17 17 18 19 19 17 16 16 17 17 17 16 15 16 17 17 16 13 11 12 12 12 12 12 11 10 11 12 12 13 13 13 14 15 14 13 13 13
7 8 9 8 9 10 11 10 8 9 12 13 9 6 7 7 8 13 11 12 16 9 9 13 10 11 13 9 6 6 7 15 18 15 13 13 13 11 13 12 10 8 7 10 13 16 19 18 17 18 18 18 17 16 16 17 17 17 16 16 16 15 13 13 13 11 11 11 11 11 11 10 8 8 8 9 10 11 12 12 13 14 13 12 12 12
9 9 9 9 9 9 9 10 11 11 11 11 8 5 6 6 7 12 10 14 16 7 8 13 9 9 11 8 9 8 7 14 17 17 16 16 15 12 12 12 10 9 8 7 9 13 17 18 18 18 17 17 17 16 16 18 18 17 15 15 15 13 12 11 11 10 10 9 9 9 8 7 6 5 6 6 7 9 11 12 12 12 13 12 12 12
8 7 9 10 8 8 9 10 13 12 10 8 7 5 6 7 7 8 6 15 16 7 7 12 8 5 6 5 10 12 9 10 15 18 15 15 15 14 13 12 11 11 10 8 9 10 14 17 18 17 17 18 18 17 18 18 18 17 15 14 13 12 11 11 11 10 8 8 7 6 5 5 5 5 5 6 6 7 9 10 10 11 12 13 12 13
7 6 9 11 10 12 11 11 12 10 8 9 9 6 7 10 11 9 5 14 14 5 5 9 5 3 4 2 7 10 11 13 15 17 15 13 13 13 12 11 11 10 9 9 9 9 11 15 17 19 20 19 18 18 17 17 16 15 14 13 11 11 10 10 10 8 7 7 6 5 4 3 4 5 7 7 7 8 10 10 10 10 11 12 12 13
7 8 11 13 13 14 13 11 11 10 7 9 10 10 12 12 12 11 3 9 8 4 4 7 5 5 3 6 7 6 12 14 14 17 16 13 12 12 11 10 9 9 8 8 9 9 11 15 18 20 20 19 18 17 16 15 14 13 13 12 11 10 9 9 8 7 7 6 5 3 3 3 4 6 7 7 7 8 10 11 11 11 11 12 12 13
7 11 14 15 14 15 15 12 12 11 7 7 8 10 14 14 13 14 6 4 5 5 6 6 7 3 3 2 5 7 14 14 14 17 16 13 12 11 10 9 9 9 8 8 8 9 11 15 17 18 18 18 17 15 14 13 12 11 12 12 11 10 9 7 7 6 6 5 4 2 2 2 3 5 6 7 7 7 8 10 11 12 12 13 14 13
9 13 15 17 15 13 12 10 12 12 8 6 7 10 12 13 14 14 9 4 5 5 6 5 7 4 1 3 4 10 17 16 13 15 14 12 11 10 10 10 10 9 8 8 8 8 10 13 15 17 18 17 15 14 13 11 10 10 9 10 9 8 7 6 5 5 4 3 3 2 1 2 4 5 6 7 8 7 7 8 11 12 12 13 14 14
10 13 14 17 15 10 10 10 12 12 9 6 7 10 11 11 12 10 7 5 6 6 5 5 5 5 2 5 3 8 13 15 13 13 13 12 11 10 10 10 10 10 9 9 9 8 10 14 17 20 20 19 17 16 15 13 11 10 9 9 10 8 7 7 6 6 4 2 1 1 3 4 5 7 8 9 8 7 6 7 9 10 11 11 13 15
10 13 12 14 13 10 10 11 12 12 8 6 8 11 9 8 8 5 5 4 3 6 5 7 6 5 2 5 5 6 8 12 11 10 12 12 12 11 10 11 11 10 10 9 9 10 13 15 18 21 21 20 18 16 16 15 14 14 12 11 11 11 9 8 7 7 7 6 5 4 5 6 7 8 9 9 9 9 8 8 9 10 11 10 11 13
10 12 11 10 11 10 9 10 13 14 8 7 9 10 7 6 4 2 3 2 2 2 6 8 9 7 3 5 6 4 8 16 13 10 12 12 12 11 9 11 11 9 9 8 9 11 14 16 18 21 21 19 18 16 14 14 13 14 14 12 11 11 10 9 8 7 8 9 9 9 8 9 9 9 10 10 10 10 10 9 9 10 11 11 11 12
11 12 11 7 8 12 10 8 11 14 9 7 8 7 3 5 2 2 0 2 2 3 6 7 9 7 4 4 4 2 11 22 18 15 17 14 13 12 10 10 10 9 9 8 8 9 11 13 16 18 17 17 17 16 15 14 12 12 12 12 12 10 10 10 10 9 8 9 10 10 10 10 10 10 11 11 11 11 10 9 9 10 11 12 12 12
9 9 11 8 6 11 12 8 8 11 9 6 6 5 4 3 2 3 2 2 3 4 6 7 7 4 3 3 5 3 13 17 15 16 18 17 14 13 11 10 9 8 9 8 6 7 7 8 11 14 15 15 17 16 14 13 12 12 11 12 12 11 10 10 10 9 9 10 10 11 12 11 11 11 11 11 11 12 12 11 12 12 12 13 13 13
6 5 12 13 6 6 10 7 6 8 7 8 7 5 6 4 3 4 3 2 3 4 7 10 8 3 3 1 4 8 14 12 13 14 14 16 15 13 11 10 9 8 8 7 6 6 6 7 11 13 14 15 16 15 13 12 12 11 11 13 13 12 11 11 11 11 10 10 11 11 11 11 11 11 11 11 12 13 13 14 14 14 14 14 15 15
7 5 10 13 5 3 7 6 6 8 6 7 8 5 5 4 4 3 3 3 4 5 7 9 6 2 3 3 5 8 14 13 14 13 13 14 13 12 11 10 10 9 7 6 6 7 7 9 12 13 13 15 15 13 12 11 11 10 10 11 12 11 11 12 12 11 11 11 10 10 10 10 11 11 11 12 13 13 14 15 15 16 16 15 16 16
8 6 7 11 7 6 8 7 7 9 6 5 6 6 5 4 4 3 4 5 4 4 4 4 2 1 3 5 6 9 13 13 14 14 15 14 12 11 11 9 9 8 7 7 6 7 7 9 13 13 13 13 12 11 9 8 8 8 8 9 10 11 12 12 12 12 12 13 12 12 12 12 11 11 12 13 14 15 15 15 16 17 16 16 16 16
7 4 7 12 10 11 12 7 4 7 6 4 5 6 6 5 4 3 3 2 3 2 1 1 3 4 3 3 5 8 11 12 13 13 14 14 12 11 9 8 9 8 7 7 6 6 6 10 12 12 11 10 9 9 8 6 6 6 6 8 9 11 12 12 13 13 13 13 14 14 13 13 12 12 14 15 15 16 15 14 15 17 17 17 17 16
6 3 7 14 12 13 13 7 5 4 3 4 5 5 4 4 4 3 3 1 3 2 1 2 5 6 4 2 4 7 8 10 12 13 13 13 12 11 9 9 9 8 8 7 7 7 7 9 10 11 11 9 8 8 7 6 6 6 6 7 9 11 12 12 13 14 12 12 14 14 14 13 14 15 16 16 16 17 16 15 17 18 18 18 18 17
4 3 5 13 13 10 11 6 5 9 7 5 5 5 5 5 5 3 3 3 4 3 1 3 4 5 4 4 9 12 11 11 12 13 13 12 11 10 10 10 10 9 8 8 7 6 6 8 10 12 11 7 7 7 6 6 7 8 7 8 9 11 13 12 12 12 11 11 13 14 14 14 15 16 17 17 17 17 17 18 18 18 19 18 18 18
3 2 2 10 14 10 8 6 6 8 9 7 4 4 5 4 4 4 3 4 4 3 3 4 2 4 3 5 11 14 14 15 13 13 13 12 11 10 9 10 9 8 8 7 6 4 6 9 10 10 10 7 6 6 6 8 9 8 7 9 12 13 13 11 11 11 10 12 14 14 14 15 15 16 16 15 15 17 18 19 20 21 21 21 21 20
2 2 1 6 12 10 6 7 9 9 7 7 5 6 7 4 4 3 2 3 5 3 3 4 2 4 2 4 11 12 11 13 13 13 12 11 11 10 9 9 8 8 8 7 6 5 7 11 10 10 9 7 5 6 8 8 7 7 9 13 14 13 11 11 12 11 11 12 14 15 15 16 16 15 15 15 17 18 18 20 22 23 23 23 23 23
2 3 1 3 8 8 6 10 12 10 8 7 4 5 6 5 5 3 2 3 4 4 5 5 4 3 3 2 7 10 10 10 11 12 11 10 11 10 9 10 10 8 7 6 5 5 8 11 12 11 9 6 6 8 9 9 10 11 13 16 15 13 12 14 15 12 11 13 15 17 18 18 17 16 17 20 22 21 19 20 22 23 23 23 23 23
4 3 2 3 5 5 5 10 14 13 11 9 6 4 5 5 5 5 3 4 3 3 4 4 2 2 5 2 7 12 11 11 11 11 10 9 10 10 10 10 9 7 7 6 5 6 9 12 13 12 10 8 9 10 12 14 14 14 14 15 15 14 14 17 18 15 14 16 18 19 19 19 18 19 22 24 24 23 22 22 24 25 24 24 23 22
5 2 3 3 3 4 5 7 11 13 12 9 7 6 3 4 6 5 3 4 3 4 4 4 2 0 4 3 10 14 12 13 12 12 12 10 9 10 10 9 8 7 7 5 4 6 10 11 10 9 7 7 9 11 15 16 15 14 14 15 15 14 14 18 19 19 19 19 20 21 20 19 19 22 25 25 23 24 25 25 26 26 25 25 25 24
5 3 3 4 3 4 6 5 7 10 9 5 5 9 6 4 7 6 2 2 1 4 5 5 1 2 1 3 11 15 14 13 12 11 12 11 10 10 9 7 7 7 6 5 5 6 8 9 9 9 8 9 13 16 18 17 16 17 16 15 15 14 16 18 19 20 21 22 23 23 21 20 22 25 26 24 24 26 26 26 27 26 25 25 26 25
5 4 4 4 5 6 7 5 6 8 6 2 3 9 11 8 9 9 4 2 3 5 3 6 4 4 5 7 11 13 14 14 12 12 11 10 10 9 8 7 6 7 7 7 7 7 7 8 8 9 12 13 16 19 19 17 16 15 13 13 13 14 17 20 21 22 22 24 25 24 22 23 24 25 25 25 25 27 27 27 27 25 24 25 26 25
2 3 3 4 5 6 4 3 3 5 4 2 2 6 11 13 10 8 5 4 5 2 3 5 11 12 9 11 12 12 13 13 12 13 12 10 10 8 7 7 6 7 7 7 7 7 6 7 7 11 15 16 17 19 18 15 13 12 13 14 15 15 17 20 22 24 24 24 26 25 23 25 26 25 24 26 27 27 27 26 26 25 24 24 25 25
3 3 3 2 3 4 4 4 3 5 4 3 4 5 9 14 13 7 6 6 6 5 2 5 16 17 12 13 14 13 13 13 11 11 12 11 10 8 7 8 9 9 8 7 7 6 6 5 7 11 14 15 17 17 15 13 13 13 14 16 18 18 19 21 22 25 26 25 26 26 24 24 27 26 25 26 27 27 27 26 25 25 24 23 25 25
5 4 5 4 5 3 4 4 1 2 4 5 8 9 8 12 14 8 6 7 7 6 6 11 15 15 13 13 13 12 12 13 13 12 11 10 10 9 8 9 10 9 9 8 7 6 6 6 8 11 13 14 16 15 13 13 15 18 19 19 20 21 21 22 24 25 26 25 25 25 24 24 25 26 25 26 27 27 26 25 25 25 25 24 25 24
6 1 3 3 2 4 2 1 7 7 3 2 8 10 6 5 7 6 5 5 7 8 13 17 13 8 8 10 11 11 11 12 12 12 11 11 11 10 10 10 10 9 9 8 7 6 6 7 10 11 12 13 14 14 13 14 16 18 20 21 21 22 23 23 25 25 26 26 25 24 23 23 24 24 25 25 26 26 26 25 26 27 26 25 26 25
6 1 1 4 2 4 5 7 9 9 9 8 4 2 6 8 8 9 9 10 12 10 14 19 15 6 5 9 12 12 11 12 12 12 12 11 10 10 10 11 10 9 9 9 9 8 8 8 11 12 12 13 14 14 15 16 17 18 19 20 20 23 24 24 25 25 25 24 24 23 23 23 23 23 24 24 24 25 26 25 26 27 26 26 28 27
6 1 1 4 4 2 6 7 7 8 12 12 11 10 8 7 8 7 6 9 14 15 16 15 11 5 6 11 13 11 12 13 13 13 12 10 9 10 11 11 10 9 9 9 9 9 7 7 9 10 12 15 17 17 17 19 19 19 20 21 20 23 26 26 25 24 23 23 23 23 23 23 23 24 24 24 24 25 25 25 25 26 26 26 28 27
6 4 2 3 4 2 5 4 4 6 8 6 6 7 9 2 9 11 9 6 10 15 14 9 8 9 12 15 15 12 12 12 11 11 11 10 10 9 10 11 10 9 10 10 9 8 7 8 9 12 14 17 19 19 19 20 21 20 21 21 21 24 27 26 25 25 24 23 24 23 23 23 24 25 25 25 25 26 25 25 25 26 26 26 27 27
6 6 5 3 4 1 5 3 5 5 3 2 4 5 7 2 14 15 9 8 7 7 8 9 11 13 14 15 16 14 10 8 6 6 6 8 9 10 10 10 10 10 10 10 8 8 8 10 11 12 14 16 18 20 20 21 22 21 21 22 23 25 27 26 25 25 25 24 24 22 22 23 23 25 27 26 26 26 27 26 26 26 25 25 27 27
7 6 4 3 4 1 2 4 5 1 2 3 7 6 2 6 17 20 14 10 8 10 15 17 14 13 12 13 14 14 11 9 9 8 7 6 7 9 10 10 10 10 9 8 7 8 10 11 10 11 13 14 17 20 22 21 21 20 20 22 25 27 27 26 26 26 26 25 23 21 21 23 23 23 26 27 26 26 27 27 27 26 25 25 25 26
8 6 4 3 4 2 2 4 4 3 1 1 5 6 3 5 9 14 14 10 7 9 15 17 13 12 13 13 12 13 12 12 11 9 8 8 9 9 10 9 9 9 8 8 9 9 10 10 10 12 15 17 19 21 21 19 18 18 19 21 25 27 27 27 27 27 27 26 24 22 21 22 22 22 23 26 28 27 26 27 27 25 24 24 25 26
6 6 4 4 3 3 3 3 2 1 1 1 2 4 1 2 3 3 8 6 4 6 11 14 14 12 12 13 12 12 13 13 10 6 7 9 11 10 10 10 11 11 11 11 11 11 10 10 12 16 19 22 22 20 16 14 15 19 23 24 25 27 27 27 27 27 27 27 27 26 24 23 23 23 22 24 27 28 27 27 27 25 23 23 24 26
5 5 5 5 2 2 6 3 2 2 1 2 4 4 3 2 5 5 7 4 3 6 8 13 15 14 13 13 12 13 13 12 7 2 3 6 9 10 10 12 14 13 12 12 11 10 9 9 12 18 22 23 21 17 14 14 15 18 22 25 26 26 27 26 25 25 26 26 26 26 26 26 25 25 24 23 24 25 27 28 27 26 25 23 23 25
8 4 4 7 3 2 6 4 2 3 2 3 5 3 4 4 5 5 5 2 4 8 9 11 14 14 13 13 13 13 11 9 6 4 2 4 8 9 9 10 12 13 12 11 10 10 12 13 16 20 23 23 20 18 18 20 19 19 22 25 26 26 26 25 25 24 24 23 23 24 25 26 27 26 26 24 23 22 24 26 26 25 26 26 25 25
7 5 4 6 4 3 5 3 2 2 2 2 3 4 5 4 1 4 2 3 7 11 11 11 13 13 12 12 11 8 6 8 8 6 4 6 9 9 9 9 11 13 11 10 11 15 19 22 23 23 23 22 19 17 19 21 21 21 23 25 25 25 25 24 23 22 22 22 22 22 22 24 26 27 26 24 22 22 23 25 26 26 26 27 27 28
4 3 3 4 5 5 6 4 1 0 1 2 1 3 3 2 4 3 3 5 10 13 12 11 12 11 11 10 6 2 3 7 9 8 7 8 9 9 10 12 13 12 10 12 16 19 22 23 23 22 20 18 17 18 20 22 21 21 22 24 24 24 25 24 24 24 25 26 24 23 23 24 26 27 27 24 21 21 23 25 27 27 27 26 28 29
0 2 2 1 3 4 4 4 3 1 1 2 3 2 2 3 2 3 2 6 12 14 13 12 12 11 10 7 5 5 9 12 11 10 9 9 8 8 10 13 13 12 12 16 19 22 22 21 19 17 15 15 18 20 21 21 21 21 21 21 23 24 25 25 26 27 28 28 28 26 24 25 27 29 29 27 24 22 22 23 26 28 28 28 28 29
1 2 2 1 2 3 3 3 3 2 2 2 1 3 3 2 4 4 6 10 11 12 13 12 11 10 9 9 9 11 14 14 12 9 9 9 8 9 11 13 13 12 14 18 20 22 22 19 15 12 11 13 18 20 20 20 21 22 22 21 21 23 24 25 26 27 29 30 29 28 27 28 29 30 31 31 29 26 25 25 26 28 29 30 30 29
2 2 3 0 1 2 3 2 2 2 1 2 3 2 2 4 5 7 9 9 9 9 9 9 9 10 11 12 12 13 14 13 11 10 10 9 8 9 10 11 12 13 16 20 21 22 21 17 11 8 8 11 17 20 19 18 19 21 23 22 20 21 22 23 25 27 28 29 29 29 29 29 29 31 32 33 33 32 30 29 29 28 29 31 31 30
2 3 5 3 2 3 4 2 1 1 4 6 7 6 8 10 9 9 10 10 8 8 7 8 11 12 13 14 14 12 12 13 12 10 9 9 8 8 9 11 14 18 20 22 23 21 18 13 10 13 15 17 19 20 17 16 18 20 21 20 19 18 18 19 22 25 27 28 28 29 29 29 29 31 32 32 33 34 32 31 31 30 29 30 30 30
1 3 6 5 4 5 6 4 4 7 9 9 9 8 10 11 9 9 10 9 8 9 9 9 11 13 13 14 14 11 11 12 12 10 9 8 7 8 12 16 20 23 24 23 22 20 15 12 13 17 20 18 16 15 16 17 18 19 19 18 17 17 16 15 18 23 26 27 28 28 29 29 29 30 31 31 32 32 31 31 31 31 30 29 29 29
1 1 4 4 4 4 4 4 6 10 10 10 10 10 10 11 9 9 10 9 10 11 11 11 13 13 12 12 13 13 12 12 12 11 9 7 8 12 16 18 19 22 23 20 18 17 15 16 18 19 21 20 18 17 19 19 17 16 17 18 17 17 15 14 15 19 23 26 27 27 28 29 29 29 30 30 30 30 30 31 32 32 31 30 28 27
1 3 5 5 3 4 4 5 8 11 9 9 9 8 8 10 10 10 11 11 11 12 12 13 13 12 11 10 12 14 13 11 12 12 9 7 9 13 16 17 19 21 21 18 17 16 16 18 19 17 18 21 21 20 21 22 20 18 17 18 18 18 18 17 15 17 20 23 25 26 26 27 27 28 28 28 29 28 28 30 31 31 30 28 27 25
2 4 4 5 6 6 6 8 10 11 9 8 8 8 8 9 11 13 13 13 13 14 13 13 13 12 13 12 11 12 14 12 10 11 9 8 9 13 16 17 18 19 18 17 18 19 19 19 17 15 16 19 20 20 20 20 21 21 19 18 18 18 20 20 20 19 19 19 21 24 25 25 25 25 26 26 27 27 27 27 29 29 28 28 27 26
4 6 6 7 7 5 5 6 8 8 6 5 8 10 10 11 13 14 14 13 13 13 13 13 14 14 14 15 13 12 12 11 11 12 11 9 11 14 16 17 17 16 16 17 20 21 20 19 17 17 17 16 17 19 21 20 19 19 18 17 17 18 19 19 22 22 20 19 19 19 20 22 22 21 22 23 23 24 24 24 25 27 27 28 28 28
2 4 5 6 6 6 7 7 7 7 7 7 9 11 11 11 12 13 13 12 12 12 13 13 14 13 12 14 16 15 12 11 14 15 12 11 14 17 16 16 16 15 16 20 22 20 19 18 18 18 18 18 19 21 21 21 20 17 15 15 16 18 19 20 22 24 24 22 18 16 15 16 16 16 17 18 18 19 19 19 20 22 24 26 28 28
Wind_Direction
192 209 220 213 200 199 212 219 214 210 233 244 236 217 205 209 230 246 248 189 168 177 206 214 211 216 231 242 252 209 158 132 137 136 129 133 122 119 125 122 121 118 113 120 120 117 116 113 108 111 114 109 108 112 116 119 123 128 130 129 130 139 147 151 154 156 163 174 180 185 192 202 211 213 213 213 215 221 226 227 229 236 242 244 244 243
197 218 218 204 200 201 204 213 222 224 236 245 248 251 234 219 222 241 242 180 167 171 203 216 213 211 227 227 221 218 141 129 136 132 128 125 119 122 122 119 120 112 107 114 117 115 113 112 109 111 111 109 114 119 121 124 126 126 128 130 130 135 144 151 157 164 172 178 181 183 190 201 215 223 221 220 222 226 231 231 229 233 241 243 243 243
208 221 211 200 200 202 200 201 216 233 239 243 250 257 257 252 231 243 235 173 171 177 199 210 210 213 228 224 209 203 141 136 138 130 131 126 122 127 124 125 124 113 112 111 113 113 112 112 113 115 115 115 119 121 121 127 131 129 127 130 134 139 148 153 159 168 171 170 171 175 183 191 206 227 232 235 240 239 238 239 236 236 243 246 245 242
207 210 196 198 197 204 212 202 206 227 241 242 242 234 250 257 242 250 224 172 179 180 177 195 204 221 242 237 195 175 134 124 125 119 122 123 124 131 129 128 127 124 124 117 114 114 111 109 108 108 109 112 113 113 118 125 128 129 131 135 140 143 145 146 150 155 156 156 159 167 183 199 211 229 241 243 246 246 245 249 248 242 245 247 245 243
205 177 182 200 201 204 217 215 204 211 233 240 235 226 243 251 249 258 214 168 181 194 169 172 180 248 243 179 174 155 113 103 108 106 107 110 116 120 119 120 122 124 124 120 116 113 111 106 100 98 99 100 100 102 113 122 124 127 130 132 132 132 127 128 137 139 137 141 145 153 171 202 224 241 252 251 246 247 251 255 254 248 248 246 244 247
209 177 181 202 205 205 213 220 210 199 215 241 235 227 238 248 257 270 238 140 158 220 207 150 152 262 261 145 164 141 104 104 107 107 110 110 112 114 114 115 114 108 104 107 107 102 105 103 99 98 100 100 97 99 111 119 123 123 121 120 117 115 115 117 124 125 123 124 128 149 179 204 235 253 261 261 256 253 255 259 258 254 252 247 246 252
210 187 185 199 205 205 210 219 216 201 197 233 230 222 236 247 260 272 269 136 147 210 212 148 142 238 315 135 165 121 107 113 114 115 119 118 117 119 120 119 115 105 99 99 98 96 99 102 102 101 102 104 102 105 114 118 119 116 115 119 115 110 111 108 110 117 122 127 136 167 198 225 267 285 287 282 283 275 264 261 259 256 256 250 247 253
201 200 190 194 203 206 209 214 213 203 198 223 225 222 236 241 247 263 272 226 174 185 208 168 129 127 251 235 186 120 113 114 115 118 121 119 116 114 115 117 112 106 101 98 97 94 95 97 96 92 89 93 98 103 109 113 116 119 119 117 114 111 106 97 97 105 118 133 138 154 233 292 304 309 312 312 306 292 273 264 260 259 259 253 245 247
190 213 198 187 199 209 208 207 206 206 206 212 223 232 237 234 236 250 268 238 165 147 216 207 138 114 214 236 188 133 125 119 118 121 119 116 114 109 105 104 101 97 90 89 90 87 86 85 85 84 82 82 85 85 85 89 95 103 110 109 106 101 94 89 84 77 75 77 45 355 317 313 313 315 323 330 327 311 288 274 269 267 265 257 246 243
187 217 210 187 196 207 204 203 204 211 210 198 224 245 247 240 238 230 249 261 139 138 204 216 168 134 214 226 178 166 144 125 120 119 116 115 110 102 98 98 96 92 88 87 88 84 83 85 85 86 84 81 79 78 78 79 81 83 83 85 85 77 72 73 67 59 57 50 36 18 358 346 341 340 343 344 337 328 315 296 284 281 280 274 260 251
194 207 220 204 193 198 202 199 203 215 210 177 214 250 270 262 245 181 224 267 77 181 218 204 175 158 209 210 183 198 147 132 131 124 120 117 108 103 99 99 97 94 93 91 91 89 87 87 87 85 84 80 77 76 75 72 72 73 66 63 65 60 54 51 41 38 44 42 35 26 20 18 13 8 7 4 356 347 335 317 301 292 289 287 281 272
208 196 214 222 188 183 195 202 199 213 212 174 202 231 268 296 306 113 336 81 116 253 242 199 172 164 193 221 251 287 134 135 138 137 132 127 120 115 110 104 101 99 98 93 91 89 86 85 85 84 83 80 76 72 68 66 63 63 57 51 51 48 38 31 26 28 32 30 28 24 22 21 19 16 13 10 6 0 353 341 326 314 303 300 299 294
225 199 198 223 217 179 185 203 195 206 209 186 198 188 181 270 273 186 221 133 167 235 233 194 174 163 163 223 298 59 123 133 131 131 131 128 124 119 114 108 102 98 95 92 90 88 85 83 82 83 80 75 72 67 62 60 55 51 48 42 43 44 37 29 25 27 28 25 24 23 21 18 15 14 13 9 4 0 356 351 343 335 327 321 318 313
233 220 195 207 235 182 179 190 183 198 201 192 201 164 156 198 204 202 205 161 192 226 208 184 173 181 135 40 340 81 106 111 111 116 119 118 117 113 110 106 100 97 94 92 92 88 82 78 78 79 78 74 70 65 58 53 46 43 41 37 38 40 36 32 34 38 33 24 20 19 19 19 16 13 11 6 0 355 350 348 345 341 336 331 325 320
207 228 198 195 203 167 188 194 175 184 192 200 204 168 153 175 167 188 173 151 210 208 185 174 168 196 130 60 8 80 97 95 99 104 104 105 107 106 105 105 102 98 95 92 90 84 81 83 82 78 76 76 72 67 63 54 47 46 42 35 35 36 32 30 34 39 33 23 23 28 27 22 16 11 8 4 358 354 350 347 343 341 338 334 331 325
205 223 194 181 175 180 208 220 176 173 191 214 197 173 188 195 155 164 169 155 176 171 156 158 128 55 103 74 42 77 95 99 104 107 108 108 108 109 108 106 106 100 97 95 90 89 92 91 86 80 79 80 78 78 77 60 47 54 49 37 35 35 35 36 35 36 35 32 33 34 27 17 11 9 7 3 0 356 352 348 346 343 339 336 333 329
197 218 185 172 179 195 207 227 191 165 178 197 200 193 198 200 161 144 183 148 103 115 190 157 114 106 110 80 66 88 99 108 114 113 113 115 114 112 112 111 109 106 104 102 100 99 94 89 89 89 87 87 90 94 94 79 66 70 57 40 39 36 36 41 39 36 35 33 28 23 19 16 15 13 8 4 1 356 350 349 351 348 345 341 335 331
173 197 195 180 185 193 191 214 261 234 190 164 194 208 178 199 214 148 147 114 89 125 223 144 140 147 158 159 131 130 121 120 124 119 116 119 118 117 118 117 113 116 116 108 100 91 85 90 96 98 88 80 89 94 91 88 81 76 62 48 48 44 39 42 41 36 31 29 26 20 18 19 17 14 12 9 4 359 355 353 352 350 348 346 342 337
176 176 211 189 180 175 169 177 257 260 248 208 185 185 156 184 226 186 153 161 142 146 117 105 149 171 183 176 159 158 155 144 136 128 126 127 126 125 124 121 120 123 117 103 97 96 98 97 98 102 97 90 109 112 104 103 85 70 64 57 57 51 43 42 43 36 33 35 31 26 25 23 18 15 15 13 7 5 4 359 355 353 350 347 345 341
183 152 231 190 166 153 153 165 213 236 246 246 212 185 181 179 185 174 176 170 148 153 147 124 164 227 229 180 171 170 162 153 144 136 135 133 130 129 127 125 124 119 106 102 111 125 120 107 101 109 111 108 126 135 122 108 93 82 79 71 63 54 43 39 39 33 33 38 34 33 33 27 20 17 17 17 14 13 14 10 4 360 355 349 346 343
154 130 261 191 164 156 166 186 203 207 214 233 220 193 200 193 161 165 214 182 143 149 155 136 190 247 269 180 176 167 154 148 142 134 133 132 130 129 125 121 116 111 111 122 136 132 117 112 106 104 106 106 118 126 120 112 104 97 86 73 61 51 42 35 31 30 33 40 41 40 37 29 23 20 19 16 10 6 9 12 9 1 355 351 347 345
141 144 165 208 181 177 187 187 196 208 211 216 214 195 189 173 148 146 239 212 151 156 158 144 186 244 317 275 167 144 135 134 126 124 126 128 126 119 112 112 111 114 125 133 134 121 114 116 113 109 113 111 97 103 105 93 81 75 71 64 53 46 43 29 21 25 34 42 45 41 37 32 25 21 18 14 12 11 12 12 7 359 352 349 345 342
117 121 153 213 211 201 204 186 184 202 218 221 228 211 167 154 142 129 182 210 200 200 159 118 148 236 326 325 130 123 125 124 120 124 125 122 117 108 105 110 114 123 126 121 119 118 122 129 131 133 135 121 97 91 86 75 67 67 66 58 48 45 36 23 23 35 43 44 44 38 35 31 24 20 17 16 20 24 20 13 4 357 353 349 344 339
118 114 147 184 216 230 243 201 179 195 213 219 226 215 165 164 165 147 165 180 187 212 161 92 83 166 341 22 115 119 122 122 124 130 125 118 112 109 113 120 126 126 116 111 112 110 113 116 113 110 112 110 99 85 78 70 60 62 64 55 48 45 31 27 38 49 47 44 42 35 32 30 25 21 18 19 25 24 18 11 4 359 357 353 350 346
166 159 138 155 179 203 221 205 184 203 215 210 207 208 211 197 173 183 225 111 178 232 166 119 119 162 92 95 115 120 123 122 126 128 122 120 119 118 123 128 126 116 100 95 98 94 91 87 81 72 64 77 83 75 69 64 56 58 62 54 50 45 35 36 46 48 45 45 42 36 33 31 25 21 20 25 28 22 15 10 6 2 360 355 353 353
174 153 134 152 175 187 194 196 191 199 207 204 185 197 208 211 188 190 205 120 206 240 152 120 134 127 124 124 118 121 127 127 128 124 117 116 118 122 128 127 116 104 96 90 87 81 77 77 75 65 54 60 72 71 65 59 53 52 55 53 48 44 42 46 48 47 46 46 43 38 33 26 21 21 24 28 26 20 14 11 8 5 1 357 355 356
129 154 159 157 181 191 193 208 185 167 175 193 201 201 209 219 209 177 168 188 191 175 55 124 139 132 137 142 133 131 133 131 128 125 119 116 118 123 128 121 106 97 95 89 84 81 79 75 70 66 60 58 69 73 68 61 53 47 50 50 46 47 51 51 49 47 46 45 43 38 30 24 21 23 28 28 23 19 16 14 10 7 2 359 358 358
100 174 212 248 238 213 207 224 188 175 196 194 214 238 220 218 216 179 165 193 165 116 54 156 143 138 149 155 146 144 140 131 127 124 120 121 126 130 128 115 105 99 95 91 89 86 82 73 66 67 64 61 68 73 69 61 50 46 49 49 48 53 56 54 50 48 45 44 42 37 30 27 25 26 28 25 21 19 17 15 11 7 5 3 0 358
107 176 217 255 284 278 222 229 106 145 227 201 204 233 235 217 210 189 177 190 164 143 162 160 145 140 150 153 145 142 138 130 127 124 121 126 130 129 126 117 111 109 108 106 104 95 87 78 67 63 62 64 68 67 65 59 48 47 48 45 47 54 56 55 52 49 45 43 41 36 32 30 28 26 26 23 21 20 17 15 12 10 8 7 3 360
95 199 205 176 286 330 311 358 45 36 347 251 215 228 244 226 190 149 139 143 120 121 136 135 124 114 129 138 131 126 124 121 121 122 124 130 134 134 132 124 118 117 115 113 106 95 85 76 67 59 59 68 69 61 59 56 50 52 48 42 51 60 58 55 53 48 45 43 38 35 33 32 29 27 25 24 23 20 18 16 14 13 13 10 7 5
90 247 252 110 91 344 2 40 53 56 53 40 8 21 73 85 95 102 112 108 95 99 120 122 112 88 100 117 114 115 120 121 123 127 129 133 140 140 131 122 121 121 116 108 100 88 76 66 62 54 52 62 62 56 56 54 52 57 49 41 56 66 59 55 53 47 45 44 40 36 33 31 30 28 27 27 25 21 19 16 15 16 16 13 12 10
102 141 315 76 95 344 355 36 57 68 67 51 23 13 32 78 99 94 98 114 122 124 122 118 117 127 131 118 113 116 122 124 128 131 134 141 145 138 129 125 126 122 113 105 95 84 73 61 57 54 52 54 51 48 54 55 53 56 49 44 59 68 60 56 54 47 45 45 43 40 36 32 30 29 29 28 25 21 18 17 17 17 16 15 16 14
117 123 121 107 106 344 326 12 59 63 58 35 5 343 321 345 95 76 38 53 117 132 135 139 144 145 138 127 123 126 127 129 134 138 142 146 139 129 125 124 118 108 100 94 85 81 78 65 58 60 61 59 53 49 55 57 54 54 50 49 60 66 60 55 51 47 46 44 42 41 38 33 32 33 32 30 26 23 21 19 19 19 17 16 16 17
125 130 140 126 108 256 292 358 57 64 80 257 279 296 297 13 96 89 54 37 66 96 111 119 128 134 133 129 127 126 123 118 113 111 122 131 129 123 116 108 100 94 88 85 83 80 76 70 67 70 72 70 63 58 59 59 57 56 54 56 62 62 57 52 49 47 46 41 40 43 41 36 36 36 34 31 28 26 25 23 21 20 19 17 16 18
127 129 132 110 106 166 298 51 79 114 182 238 284 301 326 84 92 89 71 48 63 93 102 107 118 126 121 116 116 114 106 92 76 60 59 82 103 110 107 100 94 93 90 88 89 83 82 88 85 72 68 71 69 65 63 61 60 59 57 59 64 62 55 50 48 46 42 37 40 47 45 40 39 38 35 32 30 28 27 25 24 23 20 18 18 19
133 126 112 97 104 109 23 62 117 194 199 19 316 324 37 64 72 80 69 41 45 101 113 113 114 114 109 108 110 111 109 96 74 47 36 58 76 88 98 101 95 92 96 99 101 102 104 104 89 71 69 73 71 67 67 68 68 65 60 62 66 63 56 52 50 46 42 40 44 50 49 45 43 40 36 33 32 31 28 26 26 25 22 20 21 22
125 126 115 94 93 113 100 72 82 97 84 84 303 292 341 349 306 81 86 61 45 97 119 120 115 114 116 116 117 118 112 99 81 41 21 57 82 88 91 96 99 103 110 111 116 122 115 99 84 78 78 78 75 72 72 75 75 69 66 68 69 64 58 55 53 49 45 45 47 49 50 49 46 43 39 36 36 35 33 30 30 31 29 24 24 25
84 125 136 111 78 98 107 96 68 85 193 192 186 244 276 206 184 143 99 82 75 90 109 120 123 127 128 126 130 129 117 106 103 84 18 65 91 96 95 100 107 113 118 122 125 118 99 87 83 80 79 78 77 69 60 63 71 70 69 72 72 66 60 57 54 52 47 45 45 46 47 48 46 44 41 39 39 37 34 33 33 34 36 33 30 30
49 62 102 103 105 109 107 111 114 121 235 229 156 171 275 246 186 127 80 107 144 115 109 118 128 135 136 138 144 142 133 130 139 161 163 105 101 99 102 110 117 121 125 125 117 92 77 79 79 74 73 75 74 64 58 66 74 73 73 76 75 68 63 59 56 54 49 46 48 48 47 47 45 43 41 40 41 40 35 33 33 35 38 39 36 36
36 30 65 97 114 111 104 105 110 142 253 295 116 161 240 262 130 82 79 197 163 138 132 134 137 142 144 147 151 150 146 148 152 161 158 125 109 106 110 116 121 124 123 113 98 85 80 80 77 71 70 73 74 69 67 71 73 72 77 82 78 72 70 66 61 59 56 54 55 56 56 54 49 44 41 41 46 49 43 35 33 34 38 39 40 41
30 36 63 104 111 96 99 109 103 193 248 314 319 225 249 1 66 106 205 190 149 140 141 140 141 146 149 149 150 125 92 121 132 140 139 128 122 122 123 119 115 111 102 94 93 91 86 82 79 79 81 84 82 75 71 70 66 67 78 87 85 79 76 74 70 66 63 60 59 60 62 62 57 50 46 48 55 58 50 40 36 36 37 39 41 43
290 64 46 98 112 100 100 108 93 59 211 222 258 283 38 65 133 202 179 126 131 137 139 140 145 151 147 131 114 107 109 115 124 135 138 133 129 128 124 115 108 103 100 99 98 95 89 86 87 94 100 95 84 78 76 72 66 65 74 87 91 86 80 78 75 71 68 66 63 63 65 66 63 56 52 52 58 60 54 46 41 39 39 40 42 43
212 108 98 51 93 100 83 90 116 167 204 215 318 353 25 111 174 161 108 108 122 130 135 140 145 144 132 115 112 120 122 123 129 135 133 128 125 128 128 124 122 121 114 106 101 95 92 94 101 107 108 99 88 85 83 77 71 68 68 77 92 92 84 80 79 74 72 71 69 69 70 69 66 62 58 57 60 62 58 54 50 45 42 42 42 43
343 102 142 155 350 102 103 119 186 214 255 56 81 97 92 100 121 122 112 114 122 124 129 132 128 126 124 121 123 126 126 127 132 133 130 127 128 134 140 140 137 129 114 104 100 97 98 104 106 92 92 102 97 90 87 83 82 79 72 73 88 97 91 85 82 79 76 75 74 74 73 72 71 68 64 62 63 64 62 58 55 51 47 45 45 44
359 96 119 98 52 96 111 147 202 88 58 62 83 103 99 92 97 105 109 114 119 119 119 121 122 126 128 128 128 129 129 130 131 132 133 133 136 139 134 121 111 105 100 97 98 99 103 105 87 73 86 102 101 94 91 91 91 88 83 79 84 94 99 94 87 84 82 80 79 78 77 76 75 73 70 66 64 62 61 58 56 53 51 48 47 47
123 109 97 95 103 90 69 53 71 78 73 70 76 86 92 94 97 100 104 109 112 114 118 122 125 128 131 132 130 129 132 133 130 131 133 128 122 111 101 97 97 98 99 99 101 105 107 97 82 81 86 91 95 99 100 95 92 92 93 90 86 89 100 107 99 92 89 86 83 81 80 80 79 77 74 71 67 64 62 60 58 56 54 51 49 49
220 77 79 104 133 101 67 68 85 86 86 86 84 83 87 91 93 95 101 109 113 115 119 122 124 127 131 133 133 130 133 134 130 128 126 114 104 99 97 99 101 102 103 106 110 114 109 92 83 82 78 73 77 89 92 85 84 93 100 98 92 88 91 104 114 108 97 90 88 85 82 82 81 80 77 73 70 68 65 62 60 58 56 53 51 51
149 99 85 89 93 86 100 114 97 86 86 89 89 92 95 96 96 96 101 109 113 115 120 123 126 129 129 130 132 129 128 130 129 127 122 111 108 106 104 105 105 106 110 114 115 113 106 95 90 88 83 80 79 81 80 74 71 80 96 101 97 88 82 83 101 117 112 99 91 89 88 86 83 81 80 76 73 70 68 65 62 60 58 55 53 51
102 106 100 103 100 92 103 116 106 92 83 82 89 97 101 103 105 105 107 113 116 118 121 120 120 123 125 128 131 127 124 126 126 121 117 113 112 112 111 111 115 121 126 122 112 107 105 104 102 97 93 92 89 85 85 82 74 73 83 93 94 89 83 78 81 99 116 114 102 94 91 90 87 83 81 79 76 73 71 68 65 63 62 60 57 55
67 99 109 114 121 134 143 135 122 112 106 103 104 103 102 106 109 111 114 119 120 120 120 116 113 115 117 121 125 125 124 126 124 118 116 117 117 118 120 122 129 137 135 124 117 116 115 112 107 100 99 102 104 100 96 93 87 80 80 87 90 88 87 86 81 82 93 109 114 108 98 93 89 85 82 80 79 77 75 72 69 67 65 63 61 60
81 152 162 142 140 156 150 133 116 110 115 117 109 104 105 108 110 112 117 118 116 115 117 118 119 119 116 119 126 128 125 126 128 126 124 123 127 132 137 143 148 147 135 128 128 127 124 120 114 109 106 99 93 95 94 88 86 87 87 87 88 85 85 86 82 75 74 83 98 109 110 104 94 86 82 79 75 73 73 72 69 67 66 65 65 63